Weather reports worldwide

Advertisment
Istres, France (7647): temperature & dewpoint: 08.12.2018 00:00:00 - 14.12.2018 00:00:00 (CET)Istres, France (7647): temperature 5cm: 08.12.2018 00:00:00 - 14.12.2018 00:00:00 (CET)Istres, France (7647): wind speed & gusts: 08.12.2018 00:00:00 - 14.12.2018 00:00:00 (CET)Istres, France (7647): wind direction: 08.12.2018 00:00:00 - 14.12.2018 00:00:00 (CET)Istres, France (7647): reduced air pressure: 08.12.2018 00:00:00 - 14.12.2018 00:00:00 (CET)Istres, France (7647): visibility: 08.12.2018 00:00:00 - 14.12.2018 00:00:00 (CET)Istres, France (7647): precipitation: 08.12.2018 00:00:00 - 14.12.2018 00:00:00 (CET)
Date & Time tt [°C] td [°C] tt 5cm [°C] ff [km/h] ff [kn] fx [km/h] fx [kn] dd ppp [hPa] vv [km] rr [mm]
14.12.2018 00:00:00 5,7 5,7 5,2 16 9 26 14 N 1010,3 8 0,0
13.12.2018 23:00:00 5,9 5,9 5,2 15 8 22 12 N 1009,4 9 0,0
13.12.2018 22:00:00 6,5 6,5 5,7 10 5 15 8 N 1009,2 11 0,0
13.12.2018 21:00:00 6,6 6,6 5,8 10 6 17 9 N 1008,7 19 0,4
13.12.2018 20:00:00 7,3 6,7 5,9 11 6 23 12 ENE 1008,2 16 0,2
13.12.2018 19:00:00 7,4 6,7 6,1 15 8 37 20 ENE 1007,3 19 0,2
13.12.2018 18:00:00 7,7 6,2 6,4 27 15 45 24 E 1007,1 39 0,2
13.12.2018 17:00:00 7,6 6,8 6,8 30 16 53 28 E 1006,8 37 0,0
13.12.2018 16:00:00 8,3 5,9 7,7 32 18 50 27 E 1006,8 42 0,0
13.12.2018 15:00:00 8,9 6,0 8,2 22 12 40 22 ENE 1006,7 29 0,0
13.12.2018 14:00:00 8,9 7,3 8,5 26 14 43 23 E 1007,4 34 0,0
13.12.2018 13:00:00 8,7 8,4 7,5 18 10 31 17 ENE 1008,2 32 0,0
13.12.2018 12:00:00 8,2 8,2 7,4 18 10 28 15 ENE 1009,2 13 0,2
13.12.2018 11:00:00 8,3 8,3 6,9 13 7 20 11 E 1009,8 20 0,0
13.12.2018 10:00:00 7,9 7,9 6,8 10 6 17 9 ENE 1010,1 13 0,0
13.12.2018 09:00:00 6,9 6,9 5,1 9 5 16 9 NE 1010,1 27 0,0
13.12.2018 08:00:00 5,2 5,2 3,4 11 6 15 8 NE 1010,6 20 0,0
13.12.2018 07:00:00 3,5 3,5 0,5 5 3 11 6 NE 1011,1 12 0,2
13.12.2018 06:00:00 0,9 0,9 -1,2 2 1 10 5 NNE 1011,5 8 0,0
13.12.2018 05:00:00 0,0 0,0 -1,3 6 4 12 6 NNE 1012,0 6 0,0
13.12.2018 04:00:00 0,3 0,3 -1,4 8 5 13 7 NNE 1012,6 7 0,0
13.12.2018 03:00:00 0,5 0,5 -0,3 10 6 18 10 NNE 1013,2 7 0,0
13.12.2018 02:00:00 0,8 0,8 0,0 12 7 18 10 NNE 1013,7 8 0,0
13.12.2018 01:00:00 1,2 1,2 -1,3 12 6 17 9 NNE 1014,4 13 0,0
13.12.2018 00:00:00 1,4 1,4 0,1 9 5 16 9 NNE 1015,3 14 0,0
12.12.2018 23:00:00 1,6 1,6 0,0 11 6 17 9 WNW 1015,8 14 0,0
12.12.2018 22:00:00 3,0 2,1 1,7 9 5 18 10 NE 1015,9 18 0,0
12.12.2018 21:00:00 4,3 2,8 3,3 11 6 14 8 NNW 1016,4 18 0,0
12.12.2018 20:00:00 4,4 3,8 2,0 11 6 24 13 NW 1016,5 22 0,0
12.12.2018 19:00:00 5,7 3,4 1,8 3 1 14 7 W 1016,1 19 0,0
12.12.2018 18:00:00 6,9 0,8 6,3 12 6 22 12 N 1016,4 30 0,0
12.12.2018 17:00:00 7,2 0,2 6,6 11 6 21 11 NNW 1016,8 33 0,0
12.12.2018 16:00:00 7,5 1,8 7,0 13 7 21 11 WNW 1017,1 27 0,0
12.12.2018 15:00:00 8,9 1,1 9,3 13 7 21 11 NW 1016,9 27 0,0
12.12.2018 14:00:00 9,2 1,1 11,0 13 7 22 12 NNW 1017,4 20 0,0
12.12.2018 13:00:00 8,0 1,2 8,6 16 9 24 13 NNW 1018,0 19 0,0
12.12.2018 12:00:00 7,2 0,8 8,7 16 9 20 11 NNW 1018,6 20 0,0
12.12.2018 11:00:00 6,9 1,8 7,7 11 6 21 11 N 1019,3 19 0,0
12.12.2018 10:00:00 4,7 2,9 3,4 7 4 17 9 N 1019,3 21 0,0
12.12.2018 09:00:00 2,7 2,4 1,6 8 4 16 9 N 1019,2 20 0,0
12.12.2018 08:00:00 2,2 2,2 0,1 11 6 15 8 N 1018,7 20 0,0
12.12.2018 07:00:00 2,6 1,6 1,1 9 5 15 8 N 1018,6 26 0,0
12.12.2018 06:00:00 2,8 2,2 1,2 6 4 15 8 NNW 1018,5 27 0,0
12.12.2018 05:00:00 2,8 2,7 2,0 10 6 21 12 NNE 1018,7 29 0,0
12.12.2018 04:00:00 2,8 2,4 1,9 12 7 17 9 N 1019,2 30 0,0
12.12.2018 03:00:00 3,2 2,3 1,5 14 8 23 12 N 1019,5 27 0,0
12.12.2018 02:00:00 3,5 2,3 2,5 17 9 24 13 N 1019,4 29 0,0
12.12.2018 01:00:00 3,9 1,9 2,1 15 8 20 11 N 1019,5 32 0,0
12.12.2018 00:00:00 3,7 2,5 1,2 10 6 19 10 N 1019,6 37 0,0
11.12.2018 23:00:00 5,1 1,6 3,7 17 9 30 16 N 1019,6 42 0,0
11.12.2018 22:00:00 6,6 1,1 5,4 17 9 29 16 N 1019,7 48 0,0
11.12.2018 21:00:00 7,2 1,1 6,0 18 10 37 20 N 1019,3 55 0,0
11.12.2018 20:00:00 7,6 1,0 6,4 27 15 38 21 N 1019,0 58 0,0
11.12.2018 19:00:00 8,1 1,0 6,8 22 12 39 21 N 1018,8 60 0,0
11.12.2018 18:00:00 8,7 1,1 7,6 24 13 39 21 NNW 1018,6 60 0,0
11.12.2018 17:00:00 9,3 1,4 8,2 28 15 50 27 NNW 1018,5 60 0,0
11.12.2018 16:00:00 10,7 1,5 11,3 28 15 45 24 NNW 1018,5 19 0,0
11.12.2018 15:00:00 11,2 1,1 12,8 37 20 50 27 NNW 1018,8 25 0,0
11.12.2018 14:00:00 11,3 1,5 13,4 30 16 63 34 NNW 1019,2 23 0,0
11.12.2018 13:00:00 11,4 1,9 12,9 33 18 59 32 NNW 1020,1 23 0,0
11.12.2018 12:00:00 10,5 2,6 12,2 41 22 62 33 NNW 1020,1 25 0,0
11.12.2018 11:00:00 10,0 3,0 10,8 38 20 56 31 N 1020,6 23 0,0
11.12.2018 10:00:00 9,0 3,8 9,5 38 20 49 26 NW 1020,8 26 0,0
11.12.2018 09:00:00 8,5 3,3 7,3 23 12 57 31 N 1020,8 19 0,0
11.12.2018 08:00:00 8,2 2,8 7,0 42 23 65 35 NNW 1020,8 55 0,0
11.12.2018 07:00:00 8,0 2,4 6,8 36 20 61 33 NNW 1020,8 60 0,0
11.12.2018 06:00:00 7,9 3,0 6,5 44 24 61 33 NW 1021,2 57 0,0
11.12.2018 05:00:00 7,5 3,2 6,0 33 18 48 26 NW 1021,8 60 0,0
11.12.2018 04:00:00 7,6 3,4 6,3 34 18 58 31 NW 1022,3 50 0,0
11.12.2018 03:00:00 7,2 3,1 6,4 36 19 56 30 NW 1022,8 53 0,0
11.12.2018 02:00:00 7,2 3,1 6,2 37 20 61 33 NW 1023,1 58 0,0
11.12.2018 01:00:00 7,3 2,8 5,7 35 19 55 30 NW 1023,7 56 0,0
11.12.2018 00:00:00 6,9 2,2 5,0 27 15 42 23 WNW 1024,2 53 0,0
10.12.2018 23:00:00 7,2 2,5 6,3 29 16 42 23 NW 1024,2 60 0,0
10.12.2018 22:00:00 7,8 3,8 6,9 36 19 53 28 NW 1024,9 60 0,0
10.12.2018 21:00:00 7,9 5,2 6,9 30 16 42 23 WNW 1025,3 60 0,0
10.12.2018 20:00:00 8,3 5,4 6,4 29 16 38 20 NW 1025,5 56 0,0
10.12.2018 19:00:00 8,6 5,2 7,3 21 12 37 20 WNW 1025,1 58 0,0
10.12.2018 18:00:00 9,4 4,8 8,3 24 13 39 21 NW 1024,9 60 0,0
10.12.2018 17:00:00 10,3 4,4 9,2 26 14 46 25 NW 1024,7 60 0,0
10.12.2018 16:00:00 12,2 4,2 12,5 26 14 52 28 NNW 1025,0 43 0,0
10.12.2018 15:00:00 12,7 4,1 14,2 40 22 59 32 NW 1025,0 25 0,0
10.12.2018 14:00:00 13,2 3,5 15,6 40 22 58 31 NNW 1025,4 29 0,0
10.12.2018 13:00:00 13,2 4,1 13,0 41 22 62 34 NNW 1026,0 34 0,0
10.12.2018 12:00:00 12,5 3,7 11,5 34 18 51 28 NNW 1026,4 42 0,0
10.12.2018 11:00:00 11,4 4,1 11,8 33 18 48 26 NW 1026,9 28 0,0
10.12.2018 10:00:00 10,8 4,0 9,7 27 15 39 21 NNW 1026,8 60 0,0
10.12.2018 09:00:00 8,9 3,9 6,2 25 13 32 17 NNW 1026,4 50 0,0
10.12.2018 08:00:00 7,5 4,1 6,2 22 12 33 18 WNW 1026,0 60 0,0
10.12.2018 07:00:00 7,6 4,2 5,0 22 12 28 15 NW 1025,7 60 0,0
10.12.2018 06:00:00 7,8 4,6 3,2 19 11 29 16 WNW 1025,3 60 0,0
10.12.2018 05:00:00 5,5 5,2 3,8 14 7 32 17 W 1025,4 60 0,0
10.12.2018 04:00:00 7,4 6,0 4,8 26 14 31 17 WNW 1025,0 60 0,0
10.12.2018 03:00:00 7,7 6,3 5,2 20 11 25 14 W 1025,4 57 0,0
10.12.2018 02:00:00 8,3 5,6 6,2 20 11 30 16 WNW 1025,4 58 0,0
10.12.2018 01:00:00 7,8 6,1 6,5 17 9 36 20 WNW 1024,9 60 0,0
10.12.2018 00:00:00 9,4 5,0 8,1 19 10 39 21 WNW 1024,7 60 0,0
09.12.2018 23:00:00 10,1 4,2 8,7 28 15 42 23 WNW 1023,8 60 0,0
09.12.2018 22:00:00 10,6 4,1 9,3 31 17 45 24 WNW 1023,6 60 0,0
09.12.2018 21:00:00 11,1 3,9 9,8 30 16 44 24 WNW 1023,0 60 0,0
09.12.2018 20:00:00 11,6 4,3 10,3 32 17 61 33 WNW 1022,7 60 0,0
09.12.2018 19:00:00 12,2 4,7 11,0 29 16 46 25 WNW 1021,9 60 0,0
09.12.2018 18:00:00 12,5 4,0 10,8 33 18 50 27 WNW 1021,1 60 0,0
09.12.2018 17:00:00 11,6 7,9 10,6 16 9 30 16 WNW 1020,5 45 0,0
09.12.2018 16:00:00 13,2 6,5 12,8 25 13 55 30 NNW 1019,6 37 0,0
09.12.2018 15:00:00 15,9 7,6 15,5 34 19 57 31 W 1018,6 31 0,0
09.12.2018 14:00:00 16,6 7,5 15,9 37 20 54 29 W 1018,7 20 0,0
09.12.2018 13:00:00 16,7 8,6 15,1 37 20 56 31 W 1019,1 33 0,0
09.12.2018 12:00:00 15,1 8,3 14,4 31 17 45 25 W 1019,7 35 0,0
09.12.2018 11:00:00 14,4 8,8 13,8 26 14 44 24 W 1020,2 35 0,0
09.12.2018 10:00:00 14,1 9,3 12,5 29 15 41 22 W 1019,8 38 0,0
09.12.2018 09:00:00 12,6 10,3 9,9 22 12 36 20 W 1019,9 45 0,0
09.12.2018 08:00:00 11,2 9,8 8,8 21 12 33 18 W 1019,8 60 0,0
09.12.2018 07:00:00 10,4 9,9 6,0 16 8 22 12 W 1020,0 60 0,0
09.12.2018 06:00:00 8,9 8,9 3,6 12 6 19 10 W 1020,3 60 0,0
09.12.2018 05:00:00 8,0 8,0 4,4 5 3 13 7 W 1020,7 50 0,0
09.12.2018 04:00:00 9,0 9,0 4,4 9 5 20 11 WNW 1020,9 53 0,0
09.12.2018 03:00:00 6,7 6,7 4,4 9 5 17 9 SSW 1021,4 28 0,0
09.12.2018 02:00:00 8,0 8,0 4,4 4 2 9 5 NNW 1021,7 32 0,0
09.12.2018 01:00:00 8,1 8,0 5,3 4 2 20 11 NNE 1022,0 43 0,0
09.12.2018 00:00:00 10,0 9,1 3,6 14 8 29 16 W 1022,3 53 0,0
08.12.2018 23:00:00 6,9 6,9 3,0 5 3 9 5 WSW 1022,7 9 0,0
08.12.2018 22:00:00 6,8 6,8 4,1 6 3 15 8 WNW 1023,0 50 0,0
08.12.2018 21:00:00 7,4 6,8 6,4 15 8 26 14 W 1023,2 55 0,0
08.12.2018 20:00:00 9,1 7,4 6,1 18 10 31 17 WNW 1022,9 60 0,0
08.12.2018 19:00:00 8,0 7,6 5,6 13 7 17 9 WNW 1022,9 58 0,0
08.12.2018 18:00:00 9,4 5,8 7,3 10 5 19 10 NW 1023,2 40 0,0
08.12.2018 17:00:00 10,4 5,6 9,0 15 8 24 13 WNW 1023,1 35 0,0
08.12.2018 16:00:00 13,2 4,9 13,5 19 10 35 19 WNW 1023,3 44 0,0
08.12.2018 15:00:00 13,6 3,9 15,1 24 13 42 23 WNW 1023,4 31 0,0
08.12.2018 14:00:00 13,8 2,7 16,3 30 16 43 23 WNW 1024,0 37 0,0
08.12.2018 13:00:00 13,5 3,6 15,4 26 14 41 22 NW 1024,3 45 0,0
08.12.2018 12:00:00 12,6 2,2 14,3 28 15 40 21 NW 1024,6 53 0,0
08.12.2018 11:00:00 11,7 2,2 12,7 29 16 42 23 NW 1024,9 60 0,0
08.12.2018 10:00:00 10,4 3,0 8,4 23 13 34 18 NW 1024,6 60 0,0
08.12.2018 09:00:00 7,5 3,7 5,9 23 12 29 16 WNW 1024,3 38 0,0
08.12.2018 08:00:00 7,1 3,5 3,3 24 13 30 16 NNW 1023,9 60 0,0
08.12.2018 07:00:00 5,7 4,0 4,0 13 7 22 12 WNW 1023,3 58 0,0
08.12.2018 06:00:00 5,6 4,2 4,1 16 9 22 12 W 1022,4 60 0,0
08.12.2018 05:00:00 7,5 2,6 6,1 19 10 29 16 WNW 1022,0 60 0,0
08.12.2018 04:00:00 8,2 2,8 6,1 21 11 31 17 NW 1021,7 60 0,0
08.12.2018 03:00:00 8,2 2,8 6,9 14 8 37 20 W 1022,1 58 0,0
08.12.2018 02:00:00 9,1 2,9 7,6 21 11 41 22 WNW 1021,4 60 0,0
08.12.2018 01:00:00 10,5 2,8 9,2 28 15 51 27 WNW 1020,9 60 0,0
08.12.2018 00:00:00 11,8 5,6 9,7 33 18 43 23 W 1021,2 60 0,0

tt = temperature
td = dewpoint
tt 5cm = temperature 5cm
ff = wind speed
fx = gusts
dd = wind direction
ppp = reduced air pressure
vv = visibility
rr = precipitation

Next stations